Year,Month,Day,Hour,Minute,Value (Times are PST for temperature in C)
2014,02,07,00,00,-14.40
2014,02,07,00,01,-14.40
2014,02,07,00,02,-14.40
2014,02,07,00,03,-14.40
2014,02,07,00,04,-14.40
2014,02,07,00,05,-14.40
2014,02,07,00,06,-14.40
2014,02,07,00,07,-14.40
2014,02,07,00,08,-14.40
2014,02,07,00,09,-14.40
2014,02,07,00,10,-14.40
2014,02,07,00,11,-14.40
2014,02,07,00,12,-14.40
2014,02,07,00,13,-14.40
2014,02,07,00,14,-14.40
2014,02,07,00,15,-14.40
2014,02,07,00,16,-14.20
2014,02,07,00,17,-14.20
2014,02,07,00,18,-14.20
2014,02,07,00,19,-14.20
2014,02,07,00,20,-14.20
2014,02,07,00,21,-14.20
2014,02,07,00,22,-14.20
2014,02,07,00,23,-14.20
2014,02,07,00,24,-14.20
2014,02,07,00,25,-14.20
2014,02,07,00,26,-14.20
2014,02,07,00,27,-14.20
2014,02,07,00,28,-14.20
2014,02,07,00,29,-14.20
2014,02,07,00,30,-14.20
2014,02,07,00,31,-13.70
2014,02,07,00,32,-13.70
2014,02,07,00,33,-13.70
2014,02,07,00,34,-13.70
2014,02,07,00,35,-13.70
2014,02,07,00,36,-13.70
2014,02,07,00,37,-13.70
2014,02,07,00,38,-13.70
2014,02,07,00,39,-13.70
2014,02,07,00,40,-13.70
2014,02,07,00,41,-13.70
2014,02,07,00,42,-13.70
2014,02,07,00,43,-13.70
2014,02,07,00,44,-13.70
2014,02,07,00,45,-13.70
2014,02,07,00,46,-13.70
2014,02,07,00,47,-13.20
2014,02,07,00,48,-13.20
2014,02,07,00,49,-13.20
2014,02,07,00,50,-13.20
2014,02,07,00,51,-13.20
2014,02,07,00,52,-13.20
2014,02,07,00,53,-13.20
2014,02,07,00,54,-13.20
2014,02,07,00,55,-13.20
2014,02,07,00,56,-13.20
2014,02,07,00,57,-13.20
2014,02,07,00,58,-13.20
2014,02,07,00,59,-13.20
2014,02,07,01,00,-13.20
2014,02,07,01,01,-13.70
2014,02,07,01,02,-13.70
2014,02,07,01,03,-13.70
2014,02,07,01,04,-13.70
2014,02,07,01,05,-13.70
2014,02,07,01,06,-13.70
2014,02,07,01,07,-13.70
2014,02,07,01,08,-13.70
2014,02,07,01,09,-13.70
2014,02,07,01,10,-13.70
2014,02,07,01,11,-13.70
2014,02,07,01,12,-13.70
2014,02,07,01,13,-13.70
2014,02,07,01,14,-13.70
2014,02,07,01,15,-13.70
2014,02,07,01,16,-13.70
2014,02,07,01,17,-13.80
2014,02,07,01,18,-13.80
2014,02,07,01,19,-13.80
2014,02,07,01,20,-13.80
2014,02,07,01,21,-13.80
2014,02,07,01,22,-13.80
2014,02,07,01,23,-13.80
2014,02,07,01,24,-13.80
2014,02,07,01,25,-13.80
2014,02,07,01,26,-13.80
2014,02,07,01,27,-13.80
2014,02,07,01,28,-13.80
2014,02,07,01,29,-13.80
2014,02,07,01,30,-13.80
2014,02,07,01,31,-14.30
2014,02,07,01,32,-14.30
2014,02,07,01,33,-14.30
2014,02,07,01,34,-14.30
2014,02,07,01,35,-14.30
2014,02,07,01,36,-14.30
2014,02,07,01,37,-14.30
2014,02,07,01,38,-14.30
2014,02,07,01,39,-14.30
2014,02,07,01,40,-14.30
2014,02,07,01,41,-14.30
2014,02,07,01,42,-14.30
2014,02,07,01,43,-14.30
2014,02,07,01,44,-14.30
2014,02,07,01,45,-14.30
2014,02,07,01,46,-14.50
2014,02,07,01,47,-14.50
2014,02,07,01,48,-14.50
2014,02,07,01,49,-14.50
2014,02,07,01,50,-14.50
2014,02,07,01,51,-14.50
2014,02,07,01,52,-14.50
2014,02,07,01,53,-14.50
2014,02,07,01,54,-14.50
2014,02,07,01,55,-14.50
2014,02,07,01,56,-14.50
2014,02,07,01,57,-14.50
2014,02,07,01,58,-14.50
2014,02,07,01,59,-14.50
2014,02,07,02,00,-14.50
2014,02,07,02,01,-14.90
2014,02,07,02,02,-14.90
2014,02,07,02,03,-14.90
2014,02,07,02,04,-14.90
2014,02,07,02,05,-14.90
2014,02,07,02,06,-14.90
2014,02,07,02,07,-14.90
2014,02,07,02,08,-14.90
2014,02,07,02,09,-14.90
2014,02,07,02,10,-14.90
2014,02,07,02,11,-14.90
2014,02,07,02,12,-14.90
2014,02,07,02,13,-14.90
2014,02,07,02,14,-14.90
2014,02,07,02,15,-14.90
2014,02,07,02,16,-14.90
2014,02,07,02,17,-14.60
2014,02,07,02,18,-14.60
2014,02,07,02,19,-14.60
2014,02,07,02,20,-14.60
2014,02,07,02,21,-14.60
2014,02,07,02,22,-14.60
2014,02,07,02,23,-14.60
2014,02,07,02,24,-14.60
2014,02,07,02,25,-14.60
2014,02,07,02,26,-14.60
2014,02,07,02,27,-14.60
2014,02,07,02,28,-14.60
2014,02,07,02,29,-14.60
2014,02,07,02,30,-14.60
2014,02,07,02,31,-14.60
2014,02,07,02,32,-14.60
2014,02,07,02,33,-14.60
2014,02,07,02,34,-14.60
2014,02,07,02,35,-14.60
2014,02,07,02,36,-14.60
2014,02,07,02,37,-14.60
2014,02,07,02,38,-14.60
2014,02,07,02,39,-14.60
2014,02,07,02,40,-14.60
2014,02,07,02,41,-14.60
2014,02,07,02,42,-14.60
2014,02,07,02,43,-14.60
2014,02,07,02,44,-14.60
2014,02,07,02,45,-14.60
2014,02,07,02,46,-14.40
2014,02,07,02,47,-14.40
2014,02,07,02,48,-14.40
2014,02,07,02,49,-14.40
2014,02,07,02,50,-14.40
2014,02,07,02,51,-14.40
2014,02,07,02,52,-14.40
2014,02,07,02,53,-14.40
2014,02,07,02,54,-14.40
2014,02,07,02,55,-14.40
2014,02,07,02,56,-14.40
2014,02,07,02,57,-14.40
2014,02,07,02,58,-14.40
2014,02,07,02,59,-14.40
2014,02,07,03,00,-14.40
2014,02,07,03,01,-13.80
2014,02,07,03,02,-13.80
2014,02,07,03,03,-13.80
2014,02,07,03,04,-13.80
2014,02,07,03,05,-13.80
2014,02,07,03,06,-13.80
2014,02,07,03,07,-13.80
2014,02,07,03,08,-13.80
2014,02,07,03,09,-13.80
2014,02,07,03,10,-13.80
2014,02,07,03,11,-13.80
2014,02,07,03,12,-13.80
2014,02,07,03,13,-13.80
2014,02,07,03,14,-13.80
2014,02,07,03,15,-13.80
2014,02,07,03,16,-13.60
2014,02,07,03,17,-13.60
2014,02,07,03,18,-13.60
2014,02,07,03,19,-13.60
2014,02,07,03,20,-13.60
2014,02,07,03,21,-13.60
2014,02,07,03,22,-13.60
2014,02,07,03,23,-13.60
2014,02,07,03,24,-13.60
2014,02,07,03,25,-13.60
2014,02,07,03,26,-13.60
2014,02,07,03,27,-13.60
2014,02,07,03,28,-13.60
2014,02,07,03,29,-13.60
2014,02,07,03,30,-13.60
2014,02,07,03,31,-14.10
2014,02,07,03,32,-14.10
2014,02,07,03,33,-14.10
2014,02,07,03,34,-14.10
2014,02,07,03,35,-14.10
2014,02,07,03,36,-14.10
2014,02,07,03,37,-14.10
2014,02,07,03,38,-14.10
2014,02,07,03,39,-14.10
2014,02,07,03,40,-14.10
2014,02,07,03,41,-14.10
2014,02,07,03,42,-14.10
2014,02,07,03,43,-14.10
2014,02,07,03,44,-14.10
2014,02,07,03,45,-14.10
2014,02,07,03,46,-14.30
2014,02,07,03,47,-14.30
2014,02,07,03,48,-14.30
2014,02,07,03,49,-14.30
2014,02,07,03,50,-14.30
2014,02,07,03,51,-14.30
2014,02,07,03,52,-14.30
2014,02,07,03,53,-14.30
2014,02,07,03,54,-14.30
2014,02,07,03,55,-14.30
2014,02,07,03,56,-14.30
2014,02,07,03,57,-14.30
2014,02,07,03,58,-14.30
2014,02,07,03,59,-14.30
2014,02,07,04,00,-14.30
2014,02,07,04,01,-13.00
2014,02,07,04,02,-13.00
2014,02,07,04,03,-13.00
2014,02,07,04,04,-13.00
2014,02,07,04,05,-13.00
2014,02,07,04,06,-13.00
2014,02,07,04,07,-13.00
2014,02,07,04,08,-13.00
2014,02,07,04,09,-13.00
2014,02,07,04,10,-13.00
2014,02,07,04,11,-13.00
2014,02,07,04,12,-13.00
2014,02,07,04,13,-13.00
2014,02,07,04,14,-13.00
2014,02,07,04,15,-13.00
2014,02,07,04,16,-11.70
2014,02,07,04,17,-11.70
2014,02,07,04,18,-11.70
2014,02,07,04,19,-11.70
2014,02,07,04,20,-11.70
2014,02,07,04,21,-11.70
2014,02,07,04,22,-11.70
2014,02,07,04,23,-11.70
2014,02,07,04,24,-11.70
2014,02,07,04,25,-11.70
2014,02,07,04,26,-11.70
2014,02,07,04,27,-11.70
2014,02,07,04,28,-11.70
2014,02,07,04,29,-11.70
2014,02,07,04,30,-11.70
2014,02,07,04,31,-12.00
2014,02,07,04,32,-12.00
2014,02,07,04,33,-12.00
2014,02,07,04,34,-12.00
2014,02,07,04,35,-12.00
2014,02,07,04,36,-12.00
2014,02,07,04,37,-12.00
2014,02,07,04,38,-12.00
2014,02,07,04,39,-12.00
2014,02,07,04,40,-12.00
2014,02,07,04,41,-12.00
2014,02,07,04,42,-12.00
2014,02,07,04,43,-12.00
2014,02,07,04,44,-12.00
2014,02,07,04,45,-12.00
2014,02,07,04,46,-12.30
2014,02,07,04,47,-12.30
2014,02,07,04,48,-12.30
2014,02,07,04,49,-12.30
2014,02,07,04,50,-12.30
2014,02,07,04,51,-12.30
2014,02,07,04,52,-12.30
2014,02,07,04,53,-12.30
2014,02,07,04,54,-12.30
2014,02,07,04,55,-12.30
2014,02,07,04,56,-12.30
2014,02,07,04,57,-12.30
2014,02,07,04,58,-12.30
2014,02,07,04,59,-12.30
2014,02,07,05,00,-12.30
2014,02,07,05,02,-11.70
2014,02,07,05,03,-11.70
2014,02,07,05,04,-11.70
2014,02,07,05,05,-11.70
2014,02,07,05,06,-11.70
2014,02,07,05,07,-11.70
2014,02,07,05,08,-11.70
2014,02,07,05,09,-11.70
2014,02,07,05,10,-11.70
2014,02,07,05,11,-11.70
2014,02,07,05,12,-11.70
2014,02,07,05,13,-11.70
2014,02,07,05,14,-11.70
2014,02,07,05,15,-11.70
2014,02,07,05,16,-11.70
2014,02,07,05,17,-11.70
2014,02,07,05,18,-11.70
2014,02,07,05,19,-11.70
2014,02,07,05,20,-11.70
2014,02,07,05,21,-11.70
2014,02,07,05,22,-11.70
2014,02,07,05,23,-11.70
2014,02,07,05,24,-11.70
2014,02,07,05,25,-11.70
2014,02,07,05,26,-11.70
2014,02,07,05,27,-11.70
2014,02,07,05,28,-11.70
2014,02,07,05,29,-11.70
2014,02,07,05,30,-11.70
2014,02,07,05,31,-11.80
2014,02,07,05,32,-11.80
2014,02,07,05,33,-11.80
2014,02,07,05,34,-11.80
2014,02,07,05,35,-11.80
2014,02,07,05,36,-11.80
2014,02,07,05,37,-11.80
2014,02,07,05,38,-11.80
2014,02,07,05,39,-11.80
2014,02,07,05,40,-11.80
2014,02,07,05,41,-11.80
2014,02,07,05,42,-11.80
2014,02,07,05,43,-11.80
2014,02,07,05,44,-11.80
2014,02,07,05,45,-11.80
2014,02,07,05,46,-11.80
2014,02,07,05,47,-12.70
2014,02,07,05,48,-12.70
2014,02,07,05,49,-12.70
2014,02,07,05,50,-12.70
2014,02,07,05,51,-12.70
2014,02,07,05,52,-12.70
2014,02,07,05,53,-12.70
2014,02,07,05,54,-12.70
2014,02,07,05,55,-12.70
2014,02,07,05,56,-12.70
2014,02,07,05,57,-12.70
2014,02,07,05,58,-12.70
2014,02,07,05,59,-12.70
2014,02,07,06,00,-12.70
2014,02,07,06,01,-12.20
2014,02,07,06,02,-12.20
2014,02,07,06,03,-12.20
2014,02,07,06,04,-12.20
2014,02,07,06,05,-12.20
2014,02,07,06,06,-12.20
2014,02,07,06,07,-12.20
2014,02,07,06,08,-12.20
2014,02,07,06,09,-12.20
2014,02,07,06,10,-12.20
2014,02,07,06,11,-12.20
2014,02,07,06,12,-12.20
2014,02,07,06,13,-12.20
2014,02,07,06,14,-12.20
2014,02,07,06,15,-12.20
2014,02,07,06,17,-11.70
2014,02,07,06,18,-11.70
2014,02,07,06,19,-11.70
2014,02,07,06,20,-11.70
2014,02,07,06,21,-11.70
2014,02,07,06,22,-11.70
2014,02,07,06,23,-11.70
2014,02,07,06,24,-11.70
2014,02,07,06,25,-11.70
2014,02,07,06,26,-11.70
2014,02,07,06,27,-11.70
2014,02,07,06,28,-11.70
2014,02,07,06,29,-11.70
2014,02,07,06,30,-11.70
2014,02,07,06,31,-11.60
2014,02,07,06,32,-11.60
2014,02,07,06,33,-11.60
2014,02,07,06,34,-11.60
2014,02,07,06,35,-11.60
2014,02,07,06,36,-11.60
2014,02,07,06,37,-11.60
2014,02,07,06,38,-11.60
2014,02,07,06,39,-11.60
2014,02,07,06,40,-11.60
2014,02,07,06,41,-11.60
2014,02,07,06,42,-11.60
2014,02,07,06,43,-11.60
2014,02,07,06,44,-11.60
2014,02,07,06,45,-11.60
2014,02,07,06,46,-12.00
2014,02,07,06,47,-12.00
2014,02,07,06,48,-12.00
2014,02,07,06,49,-12.00
2014,02,07,06,50,-12.00
2014,02,07,06,51,-12.00
2014,02,07,06,52,-12.00
2014,02,07,06,53,-12.00
2014,02,07,06,54,-12.00
2014,02,07,06,55,-12.00
2014,02,07,06,56,-12.00
2014,02,07,06,57,-12.00
2014,02,07,06,58,-12.00
2014,02,07,06,59,-12.00
2014,02,07,07,00,-12.00
2014,02,07,07,01,-12.00
2014,02,07,07,02,-12.00
2014,02,07,07,03,-12.00
2014,02,07,07,04,-12.00
2014,02,07,07,05,-12.00
2014,02,07,07,06,-12.00
2014,02,07,07,07,-12.00
2014,02,07,07,08,-12.00
2014,02,07,07,09,-12.00
2014,02,07,07,10,-12.00
2014,02,07,07,11,-12.00
2014,02,07,07,12,-12.00
2014,02,07,07,13,-12.00
2014,02,07,07,14,-12.00
2014,02,07,07,15,-12.00
2014,02,07,07,16,-11.90
2014,02,07,07,17,-11.90
2014,02,07,07,18,-11.90
2014,02,07,07,19,-11.90
2014,02,07,07,20,-11.90
2014,02,07,07,21,-11.90
2014,02,07,07,22,-11.90
2014,02,07,07,23,-11.90
2014,02,07,07,24,-11.90
2014,02,07,07,25,-11.90
2014,02,07,07,26,-11.90
2014,02,07,07,27,-11.90
2014,02,07,07,28,-11.90
2014,02,07,07,29,-11.90
2014,02,07,07,30,-11.90
2014,02,07,07,31,-11.80
2014,02,07,07,32,-11.80
2014,02,07,07,33,-11.80
2014,02,07,07,34,-11.80
2014,02,07,07,35,-11.80
2014,02,07,07,36,-11.80
2014,02,07,07,37,-11.80
2014,02,07,07,38,-11.80
2014,02,07,07,39,-11.80
2014,02,07,07,40,-11.80
2014,02,07,07,41,-11.80
2014,02,07,07,42,-11.80
2014,02,07,07,43,-11.80
2014,02,07,07,44,-11.80
2014,02,07,07,45,-11.80
2014,02,07,07,46,-12.70
2014,02,07,07,47,-12.70
2014,02,07,07,48,-12.70
2014,02,07,07,49,-12.70
2014,02,07,07,50,-12.70
2014,02,07,07,51,-12.70
2014,02,07,07,52,-12.70
2014,02,07,07,53,-12.70
2014,02,07,07,54,-12.70
2014,02,07,07,55,-12.70
2014,02,07,07,56,-12.70
2014,02,07,07,57,-12.70
2014,02,07,07,58,-12.70
2014,02,07,07,59,-12.70
2014,02,07,08,00,-12.70
2014,02,07,08,01,-12.30
2014,02,07,08,02,-12.30
2014,02,07,08,03,-12.30
2014,02,07,08,04,-12.30
2014,02,07,08,05,-12.30
2014,02,07,08,06,-12.30
2014,02,07,08,07,-12.30
2014,02,07,08,08,-12.30
2014,02,07,08,09,-12.30
2014,02,07,08,10,-12.30
2014,02,07,08,11,-12.30
2014,02,07,08,12,-12.30
2014,02,07,08,13,-12.30
2014,02,07,08,14,-12.30
2014,02,07,08,15,-12.30
2014,02,07,08,16,-11.90
2014,02,07,08,17,-11.90
2014,02,07,08,18,-11.90
2014,02,07,08,19,-11.90
2014,02,07,08,20,-11.90
2014,02,07,08,21,-11.90
2014,02,07,08,22,-11.90
2014,02,07,08,23,-11.90
2014,02,07,08,24,-11.90
2014,02,07,08,25,-11.90
2014,02,07,08,26,-11.90
2014,02,07,08,27,-11.90
2014,02,07,08,28,-11.90
2014,02,07,08,29,-11.90
2014,02,07,08,30,-11.90
2014,02,07,08,31,-11.90
2014,02,07,08,32,-12.10
2014,02,07,08,33,-12.10
2014,02,07,08,34,-12.10
2014,02,07,08,35,-12.10
2014,02,07,08,36,-12.10
2014,02,07,08,37,-12.10
2014,02,07,08,38,-12.10
2014,02,07,08,39,-12.10
2014,02,07,08,40,-12.10
2014,02,07,08,41,-12.10
2014,02,07,08,42,-12.10
2014,02,07,08,43,-12.10
2014,02,07,08,44,-12.10
2014,02,07,08,45,-12.10
2014,02,07,08,46,-11.70
2014,02,07,08,47,-11.70
2014,02,07,08,48,-11.70
2014,02,07,08,49,-11.70
2014,02,07,08,50,-11.70
2014,02,07,08,51,-11.70
2014,02,07,08,52,-11.70
2014,02,07,08,53,-11.70
2014,02,07,08,54,-11.70
2014,02,07,08,55,-11.70
2014,02,07,08,56,-11.70
2014,02,07,08,57,-11.70
2014,02,07,08,58,-11.70
2014,02,07,08,59,-11.70
2014,02,07,09,00,-11.70
2014,02,07,09,01,-10.90
2014,02,07,09,02,-10.90
2014,02,07,09,03,-10.90
2014,02,07,09,04,-10.90
2014,02,07,09,05,-10.90
2014,02,07,09,06,-10.90
2014,02,07,09,07,-10.90
2014,02,07,09,08,-10.90
2014,02,07,09,09,-10.90
2014,02,07,09,10,-10.90
2014,02,07,09,11,-10.90
2014,02,07,09,12,-10.90
2014,02,07,09,13,-10.90
2014,02,07,09,14,-10.90
2014,02,07,09,15,-10.90
2014,02,07,09,16,-10.40
2014,02,07,09,17,-10.40
2014,02,07,09,18,-10.40
2014,02,07,09,19,-10.40
2014,02,07,09,20,-10.40
2014,02,07,09,21,-10.40
2014,02,07,09,22,-10.40
2014,02,07,09,23,-10.40
2014,02,07,09,24,-10.40
2014,02,07,09,25,-10.40
2014,02,07,09,26,-10.40
2014,02,07,09,27,-10.40
2014,02,07,09,28,-10.40
2014,02,07,09,29,-10.40
2014,02,07,09,30,-10.40
2014,02,07,09,32,-10.20
2014,02,07,09,33,-10.20
2014,02,07,09,34,-10.20
2014,02,07,09,35,-10.20
2014,02,07,09,36,-10.20
2014,02,07,09,37,-10.20
2014,02,07,09,38,-10.20
2014,02,07,09,39,-10.20
2014,02,07,09,40,-10.20
2014,02,07,09,41,-10.20
2014,02,07,09,42,-10.20
2014,02,07,09,43,-10.20
2014,02,07,09,44,-10.20
2014,02,07,09,45,-10.20
2014,02,07,09,47,-10.10
2014,02,07,09,48,-10.10
2014,02,07,09,49,-10.10
2014,02,07,09,50,-10.10
2014,02,07,09,51,-10.10
2014,02,07,09,52,-10.10
2014,02,07,09,53,-10.10
2014,02,07,09,54,-10.10
2014,02,07,09,55,-10.10
2014,02,07,09,56,-10.10
2014,02,07,09,57,-10.10
2014,02,07,09,58,-10.10
2014,02,07,09,59,-10.10
2014,02,07,10,00,-10.10
2014,02,07,10,01,-9.80
2014,02,07,10,02,-9.80
2014,02,07,10,03,-9.80
2014,02,07,10,04,-9.80
2014,02,07,10,05,-9.80
2014,02,07,10,06,-9.80
2014,02,07,10,07,-9.80
2014,02,07,10,08,-9.80
2014,02,07,10,09,-9.80
2014,02,07,10,10,-9.80
2014,02,07,10,11,-9.80
2014,02,07,10,12,-9.80
2014,02,07,10,13,-9.80
2014,02,07,10,14,-9.80
2014,02,07,10,15,-9.80
2014,02,07,10,16,-9.80
2014,02,07,10,17,-9.80
2014,02,07,10,18,-9.80
2014,02,07,10,19,-9.80
2014,02,07,10,20,-9.80
2014,02,07,10,21,-9.80
2014,02,07,10,22,-9.80
2014,02,07,10,23,-9.80
2014,02,07,10,24,-9.80
2014,02,07,10,25,-9.80
2014,02,07,10,26,-9.80
2014,02,07,10,28,-9.80
2014,02,07,10,29,-9.80
2014,02,07,10,30,-9.80
2014,02,07,10,31,-9.50
2014,02,07,10,32,-9.50
2014,02,07,10,33,-9.50
2014,02,07,10,34,-9.50
2014,02,07,10,35,-9.50
2014,02,07,10,36,-9.50
2014,02,07,10,37,-9.50
2014,02,07,10,38,-9.50
2014,02,07,10,39,-9.50
2014,02,07,10,40,-9.50
2014,02,07,10,41,-9.50
2014,02,07,10,42,-9.50
2014,02,07,10,43,-9.50
2014,02,07,10,44,-9.50
2014,02,07,10,45,-9.50
2014,02,07,10,46,-9.40
2014,02,07,10,47,-9.40
2014,02,07,10,48,-9.40
2014,02,07,10,49,-9.40
2014,02,07,10,50,-9.40
2014,02,07,10,51,-9.40
2014,02,07,10,52,-9.40
2014,02,07,10,53,-9.40
2014,02,07,10,54,-9.40
2014,02,07,10,55,-9.40
2014,02,07,10,56,-9.40
2014,02,07,10,57,-9.40
2014,02,07,10,58,-9.40
2014,02,07,10,59,-9.40
2014,02,07,11,00,-9.40
2014,02,07,11,01,-9.30
2014,02,07,11,02,-9.30
2014,02,07,11,03,-9.30
2014,02,07,11,04,-9.30
2014,02,07,11,05,-9.30
2014,02,07,11,06,-9.30
2014,02,07,11,07,-9.30
2014,02,07,11,08,-9.30
2014,02,07,11,09,-9.30
2014,02,07,11,10,-9.30
2014,02,07,11,11,-9.30
2014,02,07,11,12,-9.30
2014,02,07,11,13,-9.30
2014,02,07,11,14,-9.30
2014,02,07,11,15,-9.30
2014,02,07,11,16,-8.90
2014,02,07,11,17,-8.90
2014,02,07,11,18,-8.90
2014,02,07,11,19,-8.90
2014,02,07,11,20,-8.90
2014,02,07,11,21,-8.90
2014,02,07,11,22,-8.90
2014,02,07,11,23,-8.90
2014,02,07,11,24,-8.90
2014,02,07,11,25,-8.90
2014,02,07,11,26,-8.90
2014,02,07,11,27,-8.90
2014,02,07,11,28,-8.90
2014,02,07,11,29,-8.90
2014,02,07,11,30,-8.90
2014,02,07,11,31,-9.00
2014,02,07,11,32,-9.00
2014,02,07,11,33,-9.00
2014,02,07,11,34,-9.00
2014,02,07,11,35,-9.00
2014,02,07,11,36,-9.00
2014,02,07,11,37,-9.00
2014,02,07,11,38,-9.00
2014,02,07,11,39,-9.00
2014,02,07,11,40,-9.00
2014,02,07,11,41,-9.00
2014,02,07,11,42,-9.00
2014,02,07,11,43,-9.00
2014,02,07,11,44,-9.00
2014,02,07,11,45,-9.00
2014,02,07,11,46,-8.60
2014,02,07,11,47,-8.60
2014,02,07,11,48,-8.60
2014,02,07,11,49,-8.60
2014,02,07,11,50,-8.60
2014,02,07,11,51,-8.60
2014,02,07,11,52,-8.60
2014,02,07,11,53,-8.60
2014,02,07,11,54,-8.60
2014,02,07,11,55,-8.60
2014,02,07,11,56,-8.60
2014,02,07,11,57,-8.60
2014,02,07,11,58,-8.60
2014,02,07,11,59,-8.60
2014,02,07,12,00,-8.60
2014,02,07,12,01,-8.60
2014,02,07,12,02,-8.60
2014,02,07,12,03,-8.60
2014,02,07,12,04,-8.60
2014,02,07,12,05,-8.60
2014,02,07,12,06,-8.60
2014,02,07,12,07,-8.60
2014,02,07,12,08,-8.60
2014,02,07,12,09,-8.60
2014,02,07,12,10,-8.60
2014,02,07,12,11,-8.60
2014,02,07,12,12,-8.60
2014,02,07,12,13,-8.60
2014,02,07,12,14,-8.60
2014,02,07,12,15,-8.60
2014,02,07,12,16,-8.20
2014,02,07,12,17,-8.20
2014,02,07,12,18,-8.20
2014,02,07,12,19,-8.20
2014,02,07,12,20,-8.20
2014,02,07,12,21,-8.20
2014,02,07,12,22,-8.20
2014,02,07,12,23,-8.20
2014,02,07,12,24,-8.20
2014,02,07,12,25,-8.20
2014,02,07,12,26,-8.20
2014,02,07,12,27,-8.20
2014,02,07,12,28,-8.20
2014,02,07,12,29,-8.20
2014,02,07,12,30,-8.20
2014,02,07,12,32,-8.50
2014,02,07,12,33,-8.50
2014,02,07,12,34,-8.50
2014,02,07,12,35,-8.50
2014,02,07,12,36,-8.50
2014,02,07,12,37,-8.50
2014,02,07,12,38,-8.50
2014,02,07,12,39,-8.50
2014,02,07,12,40,-8.50
2014,02,07,12,41,-8.50
2014,02,07,12,42,-8.50
2014,02,07,12,43,-8.50
2014,02,07,12,44,-8.50
2014,02,07,12,45,-8.50
2014,02,07,12,46,-8.50
2014,02,07,12,47,-8.50
2014,02,07,12,48,-8.50
2014,02,07,12,49,-8.50
2014,02,07,12,50,-8.50
2014,02,07,12,51,-8.50
2014,02,07,12,52,-8.50
2014,02,07,12,53,-8.50
2014,02,07,12,54,-8.50
2014,02,07,12,55,-8.50
2014,02,07,12,56,-8.50
2014,02,07,12,57,-8.50
2014,02,07,12,58,-8.50
2014,02,07,12,59,-8.50
2014,02,07,13,00,-8.50
2014,02,07,13,01,-8.60
2014,02,07,13,02,-8.60
2014,02,07,13,03,-8.60
2014,02,07,13,04,-8.60
2014,02,07,13,05,-8.60
2014,02,07,13,06,-8.60
2014,02,07,13,07,-8.60
2014,02,07,13,08,-8.60
2014,02,07,13,09,-8.60
2014,02,07,13,10,-8.60
2014,02,07,13,11,-8.60
2014,02,07,13,12,-8.60
2014,02,07,13,13,-8.60
2014,02,07,13,14,-8.60
2014,02,07,13,15,-8.60
2014,02,07,13,16,-8.40
2014,02,07,13,17,-8.40
2014,02,07,13,18,-8.40
2014,02,07,13,19,-8.40
2014,02,07,13,20,-8.40
2014,02,07,13,21,-8.40
2014,02,07,13,22,-8.40
2014,02,07,13,23,-8.40
2014,02,07,13,24,-8.40
2014,02,07,13,25,-8.40
2014,02,07,13,26,-8.40
2014,02,07,13,27,-8.40
2014,02,07,13,28,-8.40
2014,02,07,13,29,-8.40
2014,02,07,13,30,-8.40
2014,02,07,13,31,-8.30
2014,02,07,13,32,-8.30
2014,02,07,13,33,-8.30
2014,02,07,13,34,-8.30
2014,02,07,13,35,-8.30
2014,02,07,13,36,-8.30
2014,02,07,13,37,-8.30
2014,02,07,13,38,-8.30
2014,02,07,13,39,-8.30
2014,02,07,13,40,-8.30
2014,02,07,13,41,-8.30
2014,02,07,13,42,-8.30
2014,02,07,13,43,-8.30
2014,02,07,13,44,-8.30
2014,02,07,13,45,-8.30
2014,02,07,13,46,-8.20
2014,02,07,13,47,-8.20
2014,02,07,13,48,-8.20
2014,02,07,13,49,-8.20
2014,02,07,13,50,-8.20
2014,02,07,13,51,-8.20
2014,02,07,13,52,-8.20
2014,02,07,13,53,-8.20
2014,02,07,13,54,-8.20
2014,02,07,13,55,-8.20
2014,02,07,13,56,-8.20
2014,02,07,13,57,-8.20
2014,02,07,13,58,-8.20
2014,02,07,13,59,-8.20
2014,02,07,14,00,-8.20
2014,02,07,14,01,-8.20
2014,02,07,14,02,-8.20
2014,02,07,14,03,-8.20
2014,02,07,14,04,-8.20
2014,02,07,14,05,-8.20
2014,02,07,14,06,-8.20
2014,02,07,14,07,-8.20
2014,02,07,14,08,-8.20
2014,02,07,14,09,-8.20
2014,02,07,14,10,-8.20
2014,02,07,14,11,-8.20
2014,02,07,14,12,-8.20
2014,02,07,14,13,-8.20
2014,02,07,14,14,-8.20
2014,02,07,14,15,-8.20
2014,02,07,14,16,-8.40
2014,02,07,14,17,-8.40
2014,02,07,14,18,-8.40
2014,02,07,14,19,-8.40
2014,02,07,14,20,-8.40
2014,02,07,14,21,-8.40
2014,02,07,14,22,-8.40
2014,02,07,14,23,-8.40
2014,02,07,14,24,-8.40
2014,02,07,14,25,-8.40
2014,02,07,14,26,-8.40
2014,02,07,14,27,-8.40
2014,02,07,14,28,-8.40
2014,02,07,14,29,-8.40
2014,02,07,14,30,-8.40
2014,02,07,14,31,-8.30
2014,02,07,14,32,-8.30
2014,02,07,14,33,-8.30
2014,02,07,14,34,-8.30
2014,02,07,14,35,-8.30
2014,02,07,14,36,-8.30
2014,02,07,14,37,-8.30
2014,02,07,14,38,-8.30
2014,02,07,14,39,-8.30
2014,02,07,14,40,-8.30
2014,02,07,14,41,-8.30
2014,02,07,14,42,-8.30
2014,02,07,14,43,-8.30
2014,02,07,14,44,-8.30
2014,02,07,14,45,-8.30
2014,02,07,14,46,-7.80
2014,02,07,14,47,-7.80
2014,02,07,14,48,-7.80
2014,02,07,14,49,-7.80
2014,02,07,14,50,-7.80
2014,02,07,14,51,-7.80
2014,02,07,14,52,-7.80
2014,02,07,14,53,-7.80
2014,02,07,14,54,-7.80
2014,02,07,14,55,-7.80
2014,02,07,14,56,-7.80
2014,02,07,14,57,-7.80
2014,02,07,14,58,-7.80
2014,02,07,14,59,-7.80
2014,02,07,15,00,-7.80
2014,02,07,15,01,-7.80
2014,02,07,15,02,-8.20
2014,02,07,15,03,-8.20
2014,02,07,15,04,-8.20
2014,02,07,15,05,-8.20
2014,02,07,15,06,-8.20
2014,02,07,15,07,-8.20
2014,02,07,15,08,-8.20
2014,02,07,15,09,-8.20
2014,02,07,15,10,-8.20
2014,02,07,15,11,-8.20
2014,02,07,15,12,-8.20
2014,02,07,15,13,-8.20
2014,02,07,15,14,-8.20
2014,02,07,15,15,-8.20
2014,02,07,15,16,-8.30
2014,02,07,15,17,-8.30
2014,02,07,15,18,-8.30
2014,02,07,15,19,-8.30
2014,02,07,15,20,-8.30
2014,02,07,15,21,-8.30
2014,02,07,15,22,-8.30
2014,02,07,15,23,-8.30
2014,02,07,15,24,-8.30
2014,02,07,15,25,-8.30
2014,02,07,15,26,-8.30
2014,02,07,15,27,-8.30
2014,02,07,15,28,-8.30
2014,02,07,15,29,-8.30
2014,02,07,15,30,-8.30
2014,02,07,15,32,-8.40
2014,02,07,15,33,-8.40
2014,02,07,15,34,-8.40
2014,02,07,15,35,-8.40
2014,02,07,15,36,-8.40
2014,02,07,15,37,-8.40
2014,02,07,15,38,-8.40
2014,02,07,15,39,-8.40
2014,02,07,15,40,-8.40
2014,02,07,15,41,-8.40
2014,02,07,15,42,-8.40
2014,02,07,15,43,-8.40
2014,02,07,15,44,-8.40
2014,02,07,15,45,-8.40
2014,02,07,15,46,-8.80
2014,02,07,15,47,-8.80
2014,02,07,15,48,-8.80
2014,02,07,15,49,-8.80
2014,02,07,15,50,-8.80
2014,02,07,15,51,-8.80
2014,02,07,15,52,-8.80
2014,02,07,15,53,-8.80
2014,02,07,15,54,-8.80
2014,02,07,15,55,-8.80
2014,02,07,15,56,-8.80
2014,02,07,15,57,-8.80
2014,02,07,15,58,-8.80
2014,02,07,15,59,-8.80
2014,02,07,16,00,-8.80
2014,02,07,16,01,-8.70
2014,02,07,16,02,-8.70
2014,02,07,16,03,-8.70
2014,02,07,16,04,-8.70
2014,02,07,16,05,-8.70
2014,02,07,16,06,-8.70
2014,02,07,16,07,-8.70
2014,02,07,16,08,-8.70
2014,02,07,16,09,-8.70
2014,02,07,16,10,-8.70
2014,02,07,16,11,-8.70
2014,02,07,16,12,-8.70
2014,02,07,16,13,-8.70
2014,02,07,16,14,-8.70
2014,02,07,16,15,-8.70
2014,02,07,16,17,-8.90
2014,02,07,16,18,-8.90
2014,02,07,16,19,-8.90
2014,02,07,16,20,-8.90
2014,02,07,16,21,-8.90
2014,02,07,16,22,-8.90
2014,02,07,16,23,-8.90
2014,02,07,16,24,-8.90
2014,02,07,16,25,-8.90
2014,02,07,16,26,-8.90
2014,02,07,16,27,-8.90
2014,02,07,16,28,-8.90
2014,02,07,16,29,-8.90
2014,02,07,16,30,-8.90
2014,02,07,16,31,-9.10
2014,02,07,16,32,-9.10
2014,02,07,16,33,-9.10
2014,02,07,16,34,-9.10
2014,02,07,16,35,-9.10
2014,02,07,16,36,-9.10
2014,02,07,16,37,-9.10
2014,02,07,16,38,-9.10
2014,02,07,16,39,-9.10
2014,02,07,16,40,-9.10
2014,02,07,16,41,-9.10
2014,02,07,16,42,-9.10
2014,02,07,16,43,-9.10
2014,02,07,16,44,-9.10
2014,02,07,16,45,-9.10
2014,02,07,16,46,-9.40
2014,02,07,16,47,-9.40
2014,02,07,16,48,-9.40
2014,02,07,16,49,-9.40
2014,02,07,16,50,-9.40
2014,02,07,16,51,-9.40
2014,02,07,16,52,-9.40
2014,02,07,16,53,-9.40
2014,02,07,16,54,-9.40
2014,02,07,16,55,-9.40
2014,02,07,16,56,-9.40
2014,02,07,16,57,-9.40
2014,02,07,16,58,-9.40
2014,02,07,16,59,-9.40
2014,02,07,17,00,-9.40
2014,02,07,17,01,-9.60